Terminal Aerodrome Forecast
Issued by NWS New Orleans/Baton Rouge, LA

Home | Current Version | Previous Version | Text Only | Print | Product List | Glossary On
Versions: 1 2 3 4 5 6 7 8 9 10 11 12 13 14 15 16 17 18 19 20 21 22 23 24 25 26 27 28 29 30 31 32 33
000
FTUS44 KLIX 251700
TAFNEW
TAF
KNEW 251729Z 2518/2618 05004KT P6SM FEW050
     FM260100 12006KT P6SM SCT050
      TEMPO 2610/2614 BKN025 BKN050
     FM261400 10007KT P6SM BKN050=

USA.gov is the U.S. government's official web portal to all federal, state and local government web resources and services.